Time,TemperatureF,DewpointF,PressureIn,WindDirection,WindDirectionDegrees,WindSpeedMPH,WindSpeedGustMPH,Humidity,HourlyPrecipIn,Conditions,Clouds,dailyrainin,SoftwareType,DateUTC
2013-01-26 00:01:00,39.8,36.8,30.27,NNW,344,0.0,4.0,89,0.00,,---,0.00,VWS V13.01,2013-01-26 06:01:00,
2013-01-26 00:06:00,39.8,36.8,30.27,NNW,343,0.0,0.0,89,0.00,,---,0.00,VWS V13.01,2013-01-26 06:06:00,
2013-01-26 00:11:00,39.8,36.8,30.27,NNW,343,0.0,0.0,89,0.00,,---,0.00,VWS V13.01,2013-01-26 06:11:00,
2013-01-26 00:16:00,39.7,36.7,30.27,NW,326,0.0,2.0,89,0.00,,---,0.00,VWS V13.01,2013-01-26 06:16:00,
2013-01-26 00:21:00,39.7,36.7,30.27,NW,326,0.0,2.0,89,0.00,,---,0.00,VWS V13.01,2013-01-26 06:21:00,
2013-01-26 00:26:00,39.6,36.6,30.27,NW,326,0.0,2.0,89,0.00,,---,0.00,VWS V13.01,2013-01-26 06:26:00,
2013-01-26 00:31:00,39.6,36.6,30.27,NW,326,2.0,2.0,89,0.00,,---,0.00,VWS V13.01,2013-01-26 06:31:00,
2013-01-26 00:36:00,39.5,36.5,30.27,NW,326,0.0,0.0,89,0.00,,---,0.00,VWS V13.01,2013-01-26 06:36:00,
2013-01-26 00:41:00,39.5,36.5,30.27,NW,326,0.0,0.0,89,0.00,,---,0.00,VWS V13.01,2013-01-26 06:41:00,
2013-01-26 00:46:00,39.4,36.4,30.28,NW,326,0.0,0.0,89,0.00,,---,0.00,VWS V13.01,2013-01-26 06:46:00,
2013-01-26 00:51:00,39.4,36.4,30.28,NNW,333,0.0,0.0,89,0.00,,---,0.00,VWS V13.01,2013-01-26 06:51:00,
2013-01-26 00:56:00,39.4,36.4,30.27,NNW,333,0.0,0.0,89,0.00,,---,0.00,VWS V13.01,2013-01-26 06:56:00,
2013-01-26 01:01:00,39.3,36.3,30.28,NNW,333,0.0,0.0,89,0.00,,---,0.00,VWS V13.01,2013-01-26 07:01:00,
2013-01-26 01:06:00,39.3,36.3,30.28,NNW,333,0.0,0.0,89,0.00,,---,0.00,VWS V13.01,2013-01-26 07:06:00,
2013-01-26 01:11:00,39.2,36.2,30.27,NNW,333,0.0,0.0,89,0.00,,---,0.00,VWS V13.01,2013-01-26 07:11:00,
2013-01-26 01:16:00,39.1,36.1,30.27,NNW,333,0.0,0.0,89,0.00,,---,0.00,VWS V13.01,2013-01-26 07:16:00,
2013-01-26 01:21:00,39.1,36.1,30.27,NNW,333,0.0,0.0,89,0.00,,---,0.00,VWS V13.01,2013-01-26 07:21:00,
2013-01-26 01:27:00,38.9,35.9,30.27,NNW,333,0.0,0.0,89,0.00,,---,0.00,VWS V13.01,2013-01-26 07:27:00,
2013-01-26 01:32:00,38.8,35.8,30.27,NNW,333,0.0,0.0,89,0.00,,---,0.00,VWS V13.01,2013-01-26 07:32:00,
2013-01-26 01:37:00,38.8,35.8,30.27,NNW,333,0.0,0.0,89,0.00,,---,0.00,VWS V13.01,2013-01-26 07:37:00,
2013-01-26 01:42:00,38.6,35.6,30.27,NNW,333,0.0,0.0,89,0.00,,---,0.00,VWS V13.01,2013-01-26 07:42:00,
2013-01-26 01:47:00,38.4,35.5,30.28,NNW,333,0.0,0.0,89,0.00,,---,0.00,VWS V13.01,2013-01-26 07:47:00,
2013-01-26 01:52:00,38.4,35.5,30.28,NNW,333,0.0,0.0,89,0.00,,---,0.00,VWS V13.01,2013-01-26 07:52:00,
2013-01-26 01:57:00,38.3,35.3,30.28,NNW,333,0.0,0.0,89,0.00,,---,0.00,VWS V13.01,2013-01-26 07:57:00,
2013-01-26 02:02:00,38.1,35.2,30.28,NNW,333,0.0,0.0,89,0.00,,---,0.00,VWS V13.01,2013-01-26 08:02:00,
2013-01-26 02:08:00,38.0,35.3,30.27,NNW,333,0.0,0.0,90,0.00,,---,0.00,VWS V13.01,2013-01-26 08:08:00,
2013-01-26 02:13:00,37.9,35.0,30.27,NNW,333,0.0,0.0,89,0.00,,---,0.00,VWS V13.01,2013-01-26 08:13:00,
2013-01-26 02:18:00,37.9,35.0,30.27,NNW,333,0.0,0.0,89,0.00,,---,0.00,VWS V13.01,2013-01-26 08:18:00,
2013-01-26 02:23:00,37.8,35.1,30.27,NNW,333,0.0,0.0,90,0.00,,---,0.00,VWS V13.01,2013-01-26 08:23:00,
2013-01-26 02:28:00,37.7,35.0,30.27,NNW,333,0.0,0.0,90,0.00,,---,0.00,VWS V13.01,2013-01-26 08:28:00,
2013-01-26 02:33:00,37.6,34.9,30.28,NNW,333,0.0,0.0,90,0.00,,---,0.00,VWS V13.01,2013-01-26 08:33:00,
2013-01-26 02:38:00,37.5,34.8,30.28,NNW,333,0.0,0.0,90,0.00,,---,0.00,VWS V13.01,2013-01-26 08:38:00,
2013-01-26 02:43:00,37.5,34.8,30.28,NNW,333,0.0,0.0,90,0.00,,---,0.00,VWS V13.01,2013-01-26 08:43:00,
2013-01-26 02:48:00,37.4,34.7,30.28,NNW,333,0.0,0.0,90,0.00,,---,0.00,VWS V13.01,2013-01-26 08:48:00,
2013-01-26 02:53:00,37.3,34.6,30.28,NNW,333,0.0,0.0,90,0.00,,---,0.00,VWS V13.01,2013-01-26 08:53:00,
2013-01-26 02:59:00,37.2,34.5,30.28,NNW,333,0.0,0.0,90,0.00,,---,0.00,VWS V13.01,2013-01-26 08:59:00,
2013-01-26 03:04:00,37.2,34.5,30.27,NNW,333,0.0,0.0,90,0.00,,---,0.00,VWS V13.01,2013-01-26 09:04:00,
2013-01-26 03:09:00,37.2,34.5,30.27,NNW,333,0.0,0.0,90,0.00,,---,0.00,VWS V13.01,2013-01-26 09:09:00,
2013-01-26 03:14:00,37.1,34.4,30.28,NNW,333,0.0,0.0,90,0.00,,---,0.00,VWS V13.01,2013-01-26 09:14:00,
2013-01-26 03:19:00,37.1,34.4,30.28,NNW,333,0.0,0.0,90,0.00,,---,0.00,VWS V13.01,2013-01-26 09:19:00,
2013-01-26 03:24:00,37.0,34.3,30.27,NNW,333,0.0,0.0,90,0.00,,---,0.00,VWS V13.01,2013-01-26 09:24:00,
2013-01-26 03:29:00,36.9,34.2,30.28,NNW,333,0.0,0.0,90,0.00,,---,0.00,VWS V13.01,2013-01-26 09:29:00,
2013-01-26 03:34:00,36.9,34.2,30.28,NNW,333,0.0,0.0,90,0.00,,---,0.00,VWS V13.01,2013-01-26 09:34:00,
2013-01-26 03:39:00,36.8,34.2,30.28,NNW,333,0.0,0.0,90,0.00,,---,0.00,VWS V13.01,2013-01-26 09:39:00,
2013-01-26 03:44:00,36.8,34.2,30.28,NNW,333,0.0,0.0,90,0.00,,---,0.00,VWS V13.01,2013-01-26 09:44:00,
2013-01-26 03:49:00,36.8,34.2,30.27,NNW,333,0.0,0.0,90,0.00,,---,0.00,VWS V13.01,2013-01-26 09:49:00,
2013-01-26 03:54:00,36.7,34.0,30.27,NNW,333,0.0,0.0,90,0.00,,---,0.00,VWS V13.01,2013-01-26 09:54:00,
2013-01-26 03:59:00,36.6,34.0,30.27,NNW,333,0.0,0.0,90,0.00,,---,0.00,VWS V13.01,2013-01-26 09:59:00,
2013-01-26 04:04:00,36.6,34.0,30.26,NNW,333,0.0,0.0,90,0.00,,---,0.00,VWS V13.01,2013-01-26 10:04:00,
2013-01-26 04:09:00,36.5,33.8,30.26,NNW,333,0.0,0.0,90,0.00,,---,0.00,VWS V13.01,2013-01-26 10:09:00,
2013-01-26 04:14:00,36.5,33.8,30.26,NNW,333,0.0,0.0,90,0.00,,---,0.00,VWS V13.01,2013-01-26 10:14:00,
2013-01-26 04:19:00,36.4,33.8,30.26,NNW,333,0.0,0.0,90,0.00,,---,0.00,VWS V13.01,2013-01-26 10:19:00,
2013-01-26 04:24:00,36.4,33.8,30.27,NNW,333,0.0,0.0,90,0.00,,---,0.00,VWS V13.01,2013-01-26 10:24:00,
2013-01-26 04:29:00,36.3,33.7,30.26,NNW,333,0.0,0.0,90,0.00,,---,0.00,VWS V13.01,2013-01-26 10:29:00,
2013-01-26 04:35:00,36.3,33.9,30.26,NNW,333,0.0,0.0,91,0.00,,---,0.00,VWS V13.01,2013-01-26 10:35:00,
2013-01-26 04:40:00,36.3,33.9,30.26,NNW,333,0.0,0.0,91,0.00,,---,0.00,VWS V13.01,2013-01-26 10:40:00,
2013-01-26 04:45:00,36.3,33.9,30.26,NNW,333,0.0,0.0,91,0.00,,---,0.00,VWS V13.01,2013-01-26 10:45:00,
2013-01-26 04:50:00,36.2,33.8,30.26,NNW,333,0.0,0.0,91,0.00,,---,0.00,VWS V13.01,2013-01-26 10:50:00,
2013-01-26 04:55:00,36.2,33.8,30.26,NNW,333,0.0,0.0,91,0.00,,---,0.00,VWS V13.01,2013-01-26 10:55:00,
2013-01-26 05:00:00,36.2,33.8,30.26,NNW,333,0.0,0.0,91,0.00,,---,0.00,VWS V13.01,2013-01-26 11:00:00,
2013-01-26 05:05:00,36.2,33.8,30.26,NNW,333,0.0,0.0,91,0.00,,---,0.00,VWS V13.01,2013-01-26 11:05:00,
2013-01-26 05:10:00,36.2,33.8,30.26,NNW,333,0.0,0.0,91,0.00,,---,0.00,VWS V13.01,2013-01-26 11:10:00,
2013-01-26 05:15:00,36.1,33.7,30.26,East,93,0.0,0.0,91,0.00,,---,0.00,VWS V13.01,2013-01-26 11:15:00,
2013-01-26 05:20:00,36.1,33.7,30.26,East,92,0.0,0.0,91,0.00,,---,0.00,VWS V13.01,2013-01-26 11:20:00,
2013-01-26 05:25:00,36.1,33.7,30.26,East,92,0.0,2.0,91,0.00,,---,0.00,VWS V13.01,2013-01-26 11:25:00,
2013-01-26 05:30:00,36.2,33.8,30.26,East,92,0.0,2.0,91,0.00,,---,0.00,VWS V13.01,2013-01-26 11:30:00,
2013-01-26 05:35:00,36.3,33.9,30.26,East,93,0.0,1.0,91,0.00,,---,0.00,VWS V13.01,2013-01-26 11:35:00,
2013-01-26 05:41:00,36.4,34.0,30.27,East,93,0.0,1.0,91,0.00,,---,0.00,VWS V13.01,2013-01-26 11:41:00,
2013-01-26 05:46:00,36.4,34.0,30.27,East,92,0.0,1.0,91,0.00,,---,0.00,VWS V13.01,2013-01-26 11:46:00,
2013-01-26 05:51:00,36.4,34.0,30.27,East,93,0.0,1.0,91,0.00,,---,0.00,VWS V13.01,2013-01-26 11:51:00,
2013-01-26 05:56:00,36.3,33.9,30.27,East,92,0.0,1.0,91,0.00,,---,0.00,VWS V13.01,2013-01-26 11:56:00,
2013-01-26 06:01:00,36.2,33.8,30.27,East,93,0.0,1.0,91,0.00,,---,0.00,VWS V13.01,2013-01-26 12:01:00,
2013-01-26 06:06:00,36.1,33.7,30.27,East,93,0.0,0.0,91,0.00,,---,0.00,VWS V13.01,2013-01-26 12:06:00,
2013-01-26 06:11:00,36.0,33.6,30.28,East,92,0.0,0.0,91,0.00,,---,0.00,VWS V13.01,2013-01-26 12:11:00,
2013-01-26 06:16:00,35.9,33.5,30.28,East,93,0.0,0.0,91,0.00,,---,0.00,VWS V13.01,2013-01-26 12:16:00,
2013-01-26 06:21:00,35.7,33.3,30.28,East,94,0.0,3.0,91,0.00,,---,0.00,VWS V13.01,2013-01-26 12:21:00,
2013-01-26 06:26:00,35.6,33.2,30.28,East,94,1.0,3.0,91,0.00,,---,0.00,VWS V13.01,2013-01-26 12:26:00,
2013-01-26 06:31:00,35.5,33.1,30.28,East,94,0.0,3.0,91,0.00,,---,0.00,VWS V13.01,2013-01-26 12:31:00,
2013-01-26 06:36:00,35.4,33.0,30.29,East,96,3.0,3.0,91,0.00,,---,0.00,VWS V13.01,2013-01-26 12:36:00,
2013-01-26 06:41:00,35.4,33.0,30.29,SSE,149,0.0,6.0,91,0.00,,---,0.00,VWS V13.01,2013-01-26 12:41:00,
2013-01-26 06:46:00,35.4,33.0,30.30,SE,134,0.0,6.0,91,0.00,,---,0.00,VWS V13.01,2013-01-26 12:46:00,
2013-01-26 06:51:00,35.3,32.9,30.30,SE,138,0.0,6.0,91,0.00,,---,0.00,VWS V13.01,2013-01-26 12:51:00,
2013-01-26 06:56:00,35.3,32.9,30.30,SE,138,1.0,6.0,91,0.00,,---,0.00,VWS V13.01,2013-01-26 12:56:00,
2013-01-26 07:02:00,35.5,33.1,30.30,SE,146,2.0,8.0,91,0.00,,---,0.00,VWS V13.01,2013-01-26 13:02:00,
2013-01-26 07:07:00,35.6,33.2,30.30,South,178,3.0,5.0,91,0.00,,---,0.00,VWS V13.01,2013-01-26 13:07:00,
2013-01-26 07:12:00,35.8,33.4,30.30,SE,145,0.0,6.0,91,0.00,,---,0.00,VWS V13.01,2013-01-26 13:12:00,
2013-01-26 07:17:00,35.9,33.3,30.31,SSE,150,0.0,6.0,90,0.00,,---,0.00,VWS V13.01,2013-01-26 13:17:00,
2013-01-26 07:22:00,35.9,33.3,30.31,SSE,150,0.0,6.0,90,0.00,,---,0.00,VWS V13.01,2013-01-26 13:22:00,
2013-01-26 07:27:00,36.0,33.4,30.31,SSE,148,0.0,6.0,90,0.00,,---,0.00,VWS V13.01,2013-01-26 13:27:00,
2013-01-26 07:32:00,36.2,33.6,30.31,SSE,149,0.0,8.0,90,0.00,,---,0.00,VWS V13.01,2013-01-26 13:32:00,
2013-01-26 07:37:00,36.3,33.7,30.31,SE,142,0.0,6.0,90,0.00,,---,0.00,VWS V13.01,2013-01-26 13:37:00,
2013-01-26 07:42:00,36.5,33.8,30.30,SE,141,2.0,8.0,90,0.00,,---,0.00,VWS V13.01,2013-01-26 13:42:00,
2013-01-26 07:47:00,36.7,33.8,30.31,SSE,163,3.0,8.0,89,0.00,,---,0.00,VWS V13.01,2013-01-26 13:47:00,
2013-01-26 07:52:00,36.9,34.0,30.30,SSE,150,0.0,8.0,89,0.00,,---,0.00,VWS V13.01,2013-01-26 13:52:00,
2013-01-26 07:57:00,37.0,34.1,30.31,SSE,155,1.0,8.0,89,0.00,,---,0.00,VWS V13.01,2013-01-26 13:57:00,
2013-01-26 08:02:00,37.1,33.9,30.31,SSE,156,1.0,8.0,88,0.00,,---,0.00,VWS V13.01,2013-01-26 14:02:00,
2013-01-26 08:07:00,37.2,34.0,30.31,SE,136,2.0,9.0,88,0.00,,---,0.00,VWS V13.01,2013-01-26 14:07:00,
2013-01-26 08:12:00,37.4,33.9,30.31,South,171,1.0,9.0,87,0.00,,---,0.00,VWS V13.01,2013-01-26 14:12:00,
2013-01-26 08:17:00,37.6,33.8,30.31,SSE,164,1.0,9.0,86,0.00,,---,0.00,VWS V13.01,2013-01-26 14:17:00,
2013-01-26 08:22:00,38.0,33.9,30.32,SE,146,0.0,9.0,85,0.00,,---,0.00,VWS V13.01,2013-01-26 14:22:00,
2013-01-26 08:27:00,38.2,34.1,30.32,ESE,115,1.0,9.0,85,0.00,,---,0.00,VWS V13.01,2013-01-26 14:27:00,
2013-01-26 08:32:00,38.4,34.0,30.32,SE,145,4.0,9.0,84,0.00,,---,0.00,VWS V13.01,2013-01-26 14:32:00,
2013-01-26 08:38:00,38.6,33.9,30.32,SE,146,2.0,2.0,83,0.00,,---,0.00,VWS V13.01,2013-01-26 14:38:00,
2013-01-26 08:43:00,38.9,33.9,30.32,East,101,0.0,10.0,82,0.00,,---,0.00,VWS V13.01,2013-01-26 14:43:00,
2013-01-26 08:48:00,39.1,33.8,30.33,East,99,0.0,10.0,81,0.00,,---,0.00,VWS V13.01,2013-01-26 14:48:00,
2013-01-26 08:53:00,39.4,33.8,30.33,ESE,114,0.0,10.0,80,0.00,,---,0.00,VWS V13.01,2013-01-26 14:53:00,
2013-01-26 08:58:00,39.6,33.6,30.33,ESE,121,0.0,10.0,79,0.00,,---,0.00,VWS V13.01,2013-01-26 14:58:00,
2013-01-26 09:03:00,39.8,33.8,30.33,SE,146,0.0,10.0,79,0.00,,---,0.00,VWS V13.01,2013-01-26 15:03:00,
2013-01-26 09:08:00,40.0,33.7,30.33,SE,132,2.0,6.0,78,0.00,,---,0.00,VWS V13.01,2013-01-26 15:08:00,
2013-01-26 09:13:00,40.2,33.9,30.33,SE,132,0.0,7.0,78,0.00,,---,0.00,VWS V13.01,2013-01-26 15:13:00,
2013-01-26 09:18:00,40.4,33.8,30.33,SE,129,0.0,11.0,77,0.00,,---,0.00,VWS V13.01,2013-01-26 15:18:00,
2013-01-26 09:23:00,40.6,33.3,30.33,SE,137,0.0,11.0,75,0.00,,---,0.00,VWS V13.01,2013-01-26 15:23:00,
2013-01-26 09:28:00,40.9,33.6,30.33,East,80,5.0,11.0,75,0.00,,---,0.00,VWS V13.01,2013-01-26 15:28:00,
2013-01-26 09:33:00,41.1,33.8,30.33,SE,129,6.0,11.0,75,0.00,,---,0.00,VWS V13.01,2013-01-26 15:33:00,
2013-01-26 09:38:00,41.3,34.0,30.33,East,101,0.0,5.0,75,0.00,,---,0.00,VWS V13.01,2013-01-26 15:38:00,
2013-01-26 09:43:00,41.6,33.9,30.33,SE,133,7.0,10.0,74,0.00,,---,0.00,VWS V13.01,2013-01-26 15:43:00,
2013-01-26 09:49:00,42.0,33.6,30.33,SE,146,7.0,10.0,72,0.00,,---,0.00,VWS V13.01,2013-01-26 15:49:00,
2013-01-26 09:54:00,42.2,33.5,30.33,ESE,122,0.0,10.0,71,0.00,,---,0.00,VWS V13.01,2013-01-26 15:54:00,
2013-01-26 09:59:00,42.2,33.1,30.33,SE,138,9.0,10.0,70,0.00,,---,0.00,VWS V13.01,2013-01-26 15:59:00,
2013-01-26 10:04:00,42.5,33.4,30.33,ESE,106,0.0,10.0,70,0.00,,---,0.00,VWS V13.01,2013-01-26 16:04:00,
2013-01-26 10:09:00,42.9,33.1,30.33,SSE,159,4.0,7.0,68,0.00,,---,0.00,VWS V13.01,2013-01-26 16:09:00,
2013-01-26 10:14:00,43.4,33.2,30.33,SE,142,2.0,10.0,67,0.00,,---,0.00,VWS V13.01,2013-01-26 16:14:00,
2013-01-26 10:19:00,43.8,32.4,30.33,SE,140,2.0,10.0,64,0.00,,---,0.00,VWS V13.01,2013-01-26 16:19:00,
2013-01-26 10:24:00,44.2,32.4,30.34,ENE,75,4.0,12.0,63,0.00,,---,0.00,VWS V13.01,2013-01-26 16:24:00,
2013-01-26 10:29:00,44.1,31.9,30.34,SE,124,8.0,12.0,62,0.00,,---,0.00,VWS V13.01,2013-01-26 16:29:00,
2013-01-26 10:34:00,44.2,32.0,30.34,SE,146,0.0,12.0,62,0.00,,---,0.00,VWS V13.01,2013-01-26 16:34:00,
2013-01-26 10:39:00,44.2,31.2,30.34,ESE,113,6.0,10.0,60,0.00,,---,0.00,VWS V13.01,2013-01-26 16:39:00,
2013-01-26 10:44:00,44.6,31.6,30.33,ESE,111,2.0,10.0,60,0.00,,---,0.00,VWS V13.01,2013-01-26 16:44:00,
2013-01-26 10:49:00,44.8,31.4,30.34,SE,129,3.0,10.0,59,0.00,,---,0.00,VWS V13.01,2013-01-26 16:49:00,
2013-01-26 10:54:00,44.9,31.5,30.34,ENE,78,2.0,10.0,59,0.00,,---,0.00,VWS V13.01,2013-01-26 16:54:00,
2013-01-26 10:59:00,45.0,31.5,30.33,South,171,0.0,10.0,59,0.00,,---,0.00,VWS V13.01,2013-01-26 16:59:00,
2013-01-26 11:04:00,45.0,31.1,30.34,ESE,114,5.0,13.0,58,0.00,,---,0.00,VWS V13.01,2013-01-26 17:04:00,
2013-01-26 11:09:00,45.0,31.5,30.34,ESE,103,9.0,11.0,59,0.00,,---,0.00,VWS V13.01,2013-01-26 17:09:00,
2013-01-26 11:14:00,44.9,31.0,30.34,SE,134,2.0,11.0,58,0.00,,---,0.00,VWS V13.01,2013-01-26 17:14:00,
2013-01-26 11:19:00,44.7,30.9,30.33,East,86,1.0,11.0,58,0.00,,---,0.00,VWS V13.01,2013-01-26 17:19:00,
2013-01-26 11:24:00,44.9,31.5,30.33,East,101,5.0,11.0,59,0.00,,---,0.00,VWS V13.01,2013-01-26 17:24:00,
2013-01-26 11:29:00,45.0,31.5,30.33,SE,126,3.0,13.0,59,0.00,,---,0.00,VWS V13.01,2013-01-26 17:29:00,
2013-01-26 11:35:00,45.6,31.7,30.33,ESE,117,10.0,13.0,58,0.00,,---,0.00,VWS V13.01,2013-01-26 17:35:00,
2013-01-26 11:40:00,46.5,33.0,30.32,SSE,150,3.0,5.0,59,0.00,,---,0.00,VWS V13.01,2013-01-26 17:40:00,
2013-01-26 11:45:00,46.8,32.0,30.32,South,170,2.0,10.0,56,0.00,,---,0.00,VWS V13.01,2013-01-26 17:45:00,
2013-01-26 11:50:00,47.0,32.6,30.32,South,178,7.0,11.0,57,0.00,,---,0.00,VWS V13.01,2013-01-26 17:50:00,
2013-01-26 11:55:00,47.0,32.1,30.32,SE,134,6.0,12.0,56,0.00,,---,0.00,VWS V13.01,2013-01-26 17:55:00,
2013-01-26 12:00:00,47.2,31.9,30.32,ESE,113,5.0,12.0,55,0.00,,---,0.00,VWS V13.01,2013-01-26 18:00:00,
2013-01-26 12:05:00,47.6,32.7,30.31,SE,124,4.0,12.0,56,0.00,,---,0.00,VWS V13.01,2013-01-26 18:05:00,
2013-01-26 12:10:00,47.4,32.5,30.31,ENE,71,4.0,10.0,56,0.00,,---,0.00,VWS V13.01,2013-01-26 18:10:00,
2013-01-26 12:15:00,47.4,33.0,30.30,East,96,1.0,10.0,57,0.00,,---,0.00,VWS V13.01,2013-01-26 18:15:00,
2013-01-26 12:20:00,47.3,32.4,30.30,ESE,107,5.0,10.0,56,0.00,,---,0.00,VWS V13.01,2013-01-26 18:20:00,
2013-01-26 12:25:00,47.0,32.6,30.30,South,170,7.0,10.0,57,0.00,,---,0.00,VWS V13.01,2013-01-26 18:25:00,
2013-01-26 12:30:00,47.3,33.3,30.30,SE,132,3.0,11.0,58,0.00,,---,0.00,VWS V13.01,2013-01-26 18:30:00,
2013-01-26 12:35:00,47.2,32.3,30.30,SE,134,4.0,11.0,56,0.00,,---,0.00,VWS V13.01,2013-01-26 18:35:00,
2013-01-26 12:40:00,47.2,33.2,30.30,SSE,159,0.0,6.0,58,0.00,,---,0.00,VWS V13.01,2013-01-26 18:40:00,
2013-01-26 12:45:00,47.3,32.8,30.29,SSE,155,5.0,9.0,57,0.00,,---,0.00,VWS V13.01,2013-01-26 18:45:00,
2013-01-26 12:51:00,47.3,32.4,30.29,ESE,115,1.0,9.0,56,0.00,,---,0.00,VWS V13.01,2013-01-26 18:51:00,
2013-01-26 12:56:00,47.4,32.5,30.29,SE,134,3.0,9.0,56,0.00,,---,0.00,VWS V13.01,2013-01-26 18:56:00,
2013-01-26 13:01:00,47.5,32.6,30.29,SSW,199,0.0,9.0,56,0.00,,---,0.00,VWS V13.01,2013-01-26 19:01:00,
2013-01-26 13:06:00,47.5,31.7,30.29,ESE,121,6.0,7.0,54,0.00,,---,0.00,VWS V13.01,2013-01-26 19:06:00,
2013-01-26 13:11:00,47.5,32.2,30.28,ESE,118,0.0,9.0,55,0.00,,---,0.00,VWS V13.01,2013-01-26 19:11:00,
2013-01-26 13:16:00,47.7,32.8,30.28,South,188,0.0,9.0,56,0.00,,---,0.00,VWS V13.01,2013-01-26 19:16:00,
2013-01-26 13:21:00,47.7,32.3,30.27,ESE,114,4.0,15.0,55,0.00,,---,0.00,VWS V13.01,2013-01-26 19:21:00,
2013-01-26 13:26:00,47.9,32.5,30.27,SW,215,1.0,15.0,55,0.00,,---,0.00,VWS V13.01,2013-01-26 19:26:00,
2013-01-26 13:31:00,48.3,33.3,30.27,ENE,59,4.0,15.0,56,0.00,,---,0.00,VWS V13.01,2013-01-26 19:31:00,
2013-01-26 13:36:00,48.7,32.3,30.27,East,86,9.0,12.0,53,0.00,,---,0.00,VWS V13.01,2013-01-26 19:36:00,
2013-01-26 13:41:00,48.3,31.5,30.26,East,90,3.0,15.0,52,0.00,,---,0.00,VWS V13.01,2013-01-26 19:41:00,
2013-01-26 13:46:00,48.6,32.3,30.26,SSE,152,2.0,15.0,53,0.00,,---,0.00,VWS V13.01,2013-01-26 19:46:00,
2013-01-26 13:51:00,49.0,32.6,30.26,East,86,3.0,15.0,53,0.00,,---,0.00,VWS V13.01,2013-01-26 19:51:00,
2013-01-26 13:56:00,49.5,32.1,30.26,SSE,165,5.0,15.0,51,0.00,,---,0.00,VWS V13.01,2013-01-26 19:56:00,
2013-01-26 14:02:00,49.1,31.8,30.26,ESE,103,10.0,16.0,51,0.00,,---,0.00,VWS V13.01,2013-01-26 20:02:00,
2013-01-26 14:07:00,49.2,31.9,30.25,SE,130,6.0,10.0,51,0.00,,---,0.00,VWS V13.01,2013-01-26 20:07:00,
2013-01-26 14:12:00,49.5,31.6,30.25,ESE,107,4.0,11.0,50,0.00,,---,0.00,VWS V13.01,2013-01-26 20:12:00,
2013-01-26 14:17:00,49.3,31.0,30.25,SE,125,4.0,11.0,49,0.00,,---,0.00,VWS V13.01,2013-01-26 20:17:00,
2013-01-26 14:22:00,49.2,31.4,30.25,SE,125,4.0,11.0,50,0.00,,---,0.00,VWS V13.01,2013-01-26 20:22:00,
2013-01-26 14:27:00,49.2,30.9,30.24,SSW,196,2.0,11.0,49,0.00,,---,0.00,VWS V13.01,2013-01-26 20:27:00,
2013-01-26 14:32:00,49.3,31.0,30.25,SSE,148,4.0,11.0,49,0.00,,---,0.00,VWS V13.01,2013-01-26 20:32:00,
2013-01-26 14:37:00,49.5,30.1,30.25,ESE,102,4.0,13.0,47,0.00,,---,0.00,VWS V13.01,2013-01-26 20:37:00,
2013-01-26 14:42:00,49.6,30.2,30.25,SE,140,4.0,13.0,47,0.00,,---,0.00,VWS V13.01,2013-01-26 20:42:00,
2013-01-26 14:47:00,49.8,29.9,30.24,ESE,106,4.0,13.0,46,0.00,,---,0.00,VWS V13.01,2013-01-26 20:47:00,
2013-01-26 14:52:00,50.0,30.0,30.24,ESE,115,0.0,13.0,46,0.00,,---,0.00,VWS V13.01,2013-01-26 20:52:00,
2013-01-26 14:57:00,50.1,30.1,30.24,East,84,3.0,13.0,46,0.00,,---,0.00,VWS V13.01,2013-01-26 20:57:00,
2013-01-26 15:02:00,50.1,29.6,30.24,South,191,4.0,13.0,45,0.00,,---,0.00,VWS V13.01,2013-01-26 21:02:00,
2013-01-26 15:07:00,50.1,29.6,30.24,South,170,4.0,11.0,45,0.00,,---,0.00,VWS V13.01,2013-01-26 21:07:00,
2013-01-26 15:12:00,50.1,29.6,30.24,SSE,154,2.0,11.0,45,0.00,,---,0.00,VWS V13.01,2013-01-26 21:12:00,
2013-01-26 15:17:00,49.9,29.4,30.24,SE,144,4.0,11.0,45,0.00,,---,0.00,VWS V13.01,2013-01-26 21:17:00,
2013-01-26 15:22:00,49.9,30.0,30.24,East,82,2.0,11.0,46,0.00,,---,0.00,VWS V13.01,2013-01-26 21:22:00,
2013-01-26 15:27:00,49.9,30.0,30.23,East,92,12.0,13.0,46,0.00,,---,0.00,VWS V13.01,2013-01-26 21:27:00,
2013-01-26 15:32:00,49.8,29.3,30.24,ESE,103,0.0,13.0,45,0.00,,---,0.00,VWS V13.01,2013-01-26 21:32:00,
2013-01-26 15:37:00,49.8,29.9,30.23,East,100,5.0,12.0,46,0.00,,---,0.00,VWS V13.01,2013-01-26 21:37:00,
2013-01-26 15:42:00,49.7,30.3,30.24,SE,134,6.0,12.0,47,0.00,,---,0.00,VWS V13.01,2013-01-26 21:42:00,
2013-01-26 15:47:00,49.7,30.8,30.23,SE,138,5.0,12.0,48,0.00,,---,0.00,VWS V13.01,2013-01-26 21:47:00,
2013-01-26 15:52:00,49.7,30.8,30.23,SE,125,0.0,12.0,48,0.00,,---,0.00,VWS V13.01,2013-01-26 21:52:00,
2013-01-26 15:58:00,49.7,31.3,30.23,SE,126,3.0,12.0,49,0.00,,---,0.00,VWS V13.01,2013-01-26 21:58:00,
2013-01-26 16:03:00,49.6,31.2,30.23,SSE,158,3.0,12.0,49,0.00,,---,0.00,VWS V13.01,2013-01-26 22:03:00,
2013-01-26 16:08:00,49.5,31.6,30.23,SE,128,6.0,10.0,50,0.00,,---,0.00,VWS V13.01,2013-01-26 22:08:00,
2013-01-26 16:13:00,49.4,31.1,30.24,SE,125,0.0,11.0,49,0.00,,---,0.00,VWS V13.01,2013-01-26 22:13:00,
2013-01-26 16:18:00,49.4,32.0,30.24,SE,125,6.0,11.0,51,0.00,,---,0.00,VWS V13.01,2013-01-26 22:18:00,
2013-01-26 16:23:00,49.2,31.4,30.24,South,172,2.0,11.0,50,0.00,,---,0.00,VWS V13.01,2013-01-26 22:23:00,
2013-01-26 16:28:00,49.2,31.4,30.24,East,86,2.0,11.0,50,0.00,,---,0.00,VWS V13.01,2013-01-26 22:28:00,
2013-01-26 16:33:00,49.1,31.8,30.23,SE,141,5.0,11.0,51,0.00,,---,0.00,VWS V13.01,2013-01-26 22:33:00,
2013-01-26 16:38:00,49.0,31.7,30.23,SSE,158,2.0,9.0,51,0.00,,---,0.00,VWS V13.01,2013-01-26 22:38:00,
2013-01-26 16:43:00,48.8,31.0,30.23,SE,126,5.0,10.0,50,0.00,,---,0.00,VWS V13.01,2013-01-26 22:43:00,
2013-01-26 16:48:00,48.7,31.4,30.23,SSE,159,9.0,10.0,51,0.00,,---,0.00,VWS V13.01,2013-01-26 22:48:00,
2013-01-26 16:53:00,48.6,31.3,30.23,SE,128,0.0,10.0,51,0.00,,---,0.00,VWS V13.01,2013-01-26 22:53:00,
2013-01-26 16:58:00,48.6,31.8,30.23,SE,132,6.0,10.0,52,0.00,,---,0.00,VWS V13.01,2013-01-26 22:58:00,
2013-01-26 17:03:00,48.5,32.2,30.23,SE,134,0.0,10.0,53,0.00,,---,0.00,VWS V13.01,2013-01-26 23:03:00,
2013-01-26 17:08:00,48.5,32.2,30.24,South,190,4.0,5.0,53,0.00,,---,0.00,VWS V13.01,2013-01-26 23:08:00,
2013-01-26 17:13:00,48.5,32.2,30.23,SE,127,0.0,10.0,53,0.00,,---,0.00,VWS V13.01,2013-01-26 23:13:00,
2013-01-26 17:18:00,48.4,32.1,30.23,SE,132,3.0,10.0,53,0.00,,---,0.00,VWS V13.01,2013-01-26 23:18:00,
2013-01-26 17:23:00,48.4,32.1,30.23,SE,145,5.0,10.0,53,0.00,,---,0.00,VWS V13.01,2013-01-26 23:23:00,
2013-01-26 17:28:00,48.3,32.0,30.23,South,176,7.0,10.0,53,0.00,,---,0.00,VWS V13.01,2013-01-26 23:28:00,
2013-01-26 17:33:00,48.2,32.3,30.24,South,180,3.0,10.0,54,0.00,,---,0.00,VWS V13.01,2013-01-26 23:33:00,
2013-01-26 17:38:00,48.1,31.8,30.24,SE,136,3.0,9.0,53,0.00,,---,0.00,VWS V13.01,2013-01-26 23:38:00,
2013-01-26 17:43:00,48.1,31.8,30.24,SE,144,0.0,9.0,53,0.00,,---,0.00,VWS V13.01,2013-01-26 23:43:00,
2013-01-26 17:49:00,48.0,31.7,30.24,SE,144,0.0,9.0,53,0.00,,---,0.00,VWS V13.01,2013-01-26 23:49:00,
2013-01-26 17:54:00,47.9,31.6,30.24,SSE,160,4.0,9.0,53,0.00,,---,0.00,VWS V13.01,2013-01-26 23:54:00,
2013-01-26 17:59:00,47.9,32.1,30.24,ESE,119,2.0,9.0,54,0.00,,---,0.00,VWS V13.01,2013-01-26 23:59:00,
2013-01-26 18:04:00,47.8,32.0,30.24,SSW,200,0.0,9.0,54,0.00,,---,0.00,VWS V13.01,2013-01-27 00:04:00,
2013-01-26 18:09:00,47.7,31.9,30.24,SSW,205,3.0,5.0,54,0.00,,---,0.00,VWS V13.01,2013-01-27 00:09:00,
2013-01-26 18:14:00,47.6,31.8,30.24,South,169,0.0,9.0,54,0.00,,---,0.00,VWS V13.01,2013-01-27 00:14:00,
2013-01-26 18:19:00,47.5,32.2,30.24,SSE,156,3.0,9.0,55,0.00,,---,0.00,VWS V13.01,2013-01-27 00:19:00,
2013-01-26 18:24:00,47.4,32.1,30.24,South,172,4.0,9.0,55,0.00,,---,0.00,VWS V13.01,2013-01-27 00:24:00,
2013-01-26 18:29:00,47.4,32.1,30.25,SSW,192,1.0,9.0,55,0.00,,---,0.00,VWS V13.01,2013-01-27 00:29:00,
2013-01-26 18:34:00,47.3,32.0,30.25,SSE,148,0.0,9.0,55,0.00,,---,0.00,VWS V13.01,2013-01-27 00:34:00,
2013-01-26 18:39:00,47.3,32.0,30.25,South,179,0.0,6.0,55,0.00,,---,0.00,VWS V13.01,2013-01-27 00:39:00,
2013-01-26 18:44:00,47.2,31.9,30.25,South,186,3.0,7.0,55,0.00,,---,0.00,VWS V13.01,2013-01-27 00:44:00,
2013-01-26 18:49:00,47.1,32.2,30.25,SSW,200,4.0,7.0,56,0.00,,---,0.00,VWS V13.01,2013-01-27 00:49:00,
2013-01-26 18:54:00,47.1,31.8,30.25,SSE,156,3.0,7.0,55,0.00,,---,0.00,VWS V13.01,2013-01-27 00:54:00,
2013-01-26 18:59:00,47.1,32.2,30.25,South,180,5.0,7.0,56,0.00,,---,0.00,VWS V13.01,2013-01-27 00:59:00,
2013-01-26 19:04:00,47.0,32.1,30.25,SSE,157,2.0,7.0,56,0.00,,---,0.00,VWS V13.01,2013-01-27 01:04:00,
2013-01-26 19:09:00,47.0,32.1,30.25,South,190,0.0,10.0,56,0.00,,---,0.00,VWS V13.01,2013-01-27 01:09:00,
2013-01-26 19:14:00,47.0,32.1,30.25,SSE,157,1.0,10.0,56,0.00,,---,0.00,VWS V13.01,2013-01-27 01:14:00,
2013-01-26 19:19:00,47.0,32.1,30.25,SSE,163,2.0,10.0,56,0.00,,---,0.00,VWS V13.01,2013-01-27 01:19:00,
2013-01-26 19:25:00,46.9,32.0,30.25,South,169,2.0,10.0,56,0.00,,---,0.00,VWS V13.01,2013-01-27 01:25:00,
2013-01-26 19:30:00,46.9,32.0,30.26,South,178,3.0,10.0,56,0.00,,---,0.00,VWS V13.01,2013-01-27 01:30:00,
2013-01-26 19:35:00,46.8,31.5,30.26,South,173,2.0,10.0,55,0.00,,---,0.00,VWS V13.01,2013-01-27 01:35:00,
2013-01-26 19:40:00,46.8,32.0,30.26,South,174,7.0,7.0,56,0.00,,---,0.00,VWS V13.01,2013-01-27 01:40:00,
2013-01-26 19:45:00,46.8,32.0,30.26,SSE,157,3.0,11.0,56,0.00,,---,0.00,VWS V13.01,2013-01-27 01:45:00,
2013-01-26 19:50:00,46.8,32.0,30.26,South,183,0.0,11.0,56,0.00,,---,0.00,VWS V13.01,2013-01-27 01:50:00,
2013-01-26 19:55:00,46.7,31.9,30.25,South,176,2.0,11.0,56,0.00,,---,0.00,VWS V13.01,2013-01-27 01:55:00,
2013-01-26 20:00:00,46.7,32.3,30.26,South,184,3.0,11.0,57,0.00,,---,0.00,VWS V13.01,2013-01-27 02:00:00,
2013-01-26 20:05:00,46.7,32.3,30.25,SSW,195,0.0,11.0,57,0.00,,---,0.00,VWS V13.01,2013-01-27 02:05:00,
2013-01-26 20:10:00,46.6,32.2,30.25,SSE,166,0.0,8.0,57,0.00,,---,0.00,VWS V13.01,2013-01-27 02:10:00,
2013-01-26 20:15:00,46.5,32.1,30.25,SE,137,0.0,8.0,57,0.00,,---,0.00,VWS V13.01,2013-01-27 02:15:00,
2013-01-26 20:20:00,46.5,32.1,30.25,SE,126,5.0,8.0,57,0.00,,---,0.00,VWS V13.01,2013-01-27 02:20:00,
2013-01-26 20:25:00,46.5,32.1,30.26,SSE,159,4.0,8.0,57,0.00,,---,0.00,VWS V13.01,2013-01-27 02:25:00,
2013-01-26 20:31:00,46.4,32.0,30.26,SSE,159,4.0,8.0,57,0.00,,---,0.00,VWS V13.01,2013-01-27 02:31:00,
2013-01-26 20:36:00,46.4,32.4,30.26,SSE,160,0.0,0.0,58,0.00,,---,0.00,VWS V13.01,2013-01-27 02:36:00,
2013-01-26 20:41:00,46.4,32.4,30.26,South,171,4.0,5.0,58,0.00,,---,0.00,VWS V13.01,2013-01-27 02:41:00,
2013-01-26 20:46:00,46.3,32.3,30.26,SSE,164,5.0,7.0,58,0.00,,---,0.00,VWS V13.01,2013-01-27 02:46:00,
2013-01-26 20:51:00,46.2,32.2,30.26,SSE,161,2.0,7.0,58,0.00,,---,0.00,VWS V13.01,2013-01-27 02:51:00,
2013-01-26 20:56:00,46.2,32.2,30.25,SSE,156,2.0,7.0,58,0.00,,---,0.00,VWS V13.01,2013-01-27 02:56:00,
2013-01-26 21:01:00,46.1,32.6,30.26,SSE,156,0.0,7.0,59,0.00,,---,0.00,VWS V13.01,2013-01-27 03:01:00,
2013-01-26 21:06:00,46.1,32.6,30.26,South,184,1.0,2.0,59,0.00,,---,0.00,VWS V13.01,2013-01-27 03:06:00,
2013-01-26 21:11:00,46.0,32.5,30.25,SSE,159,2.0,5.0,59,0.00,,---,0.00,VWS V13.01,2013-01-27 03:11:00,
2013-01-26 21:16:00,46.0,32.5,30.25,SE,136,1.0,5.0,59,0.00,,---,0.00,VWS V13.01,2013-01-27 03:16:00,
2013-01-26 21:21:00,46.0,32.5,30.25,SSE,164,0.0,7.0,59,0.00,,---,0.00,VWS V13.01,2013-01-27 03:21:00,
2013-01-26 21:26:00,45.9,32.8,30.25,ESE,109,2.0,7.0,60,0.00,,---,0.00,VWS V13.01,2013-01-27 03:26:00,
2013-01-26 21:31:00,45.9,32.8,30.25,ESE,115,0.0,7.0,60,0.00,,---,0.00,VWS V13.01,2013-01-27 03:31:00,
2013-01-26 21:36:00,45.8,32.7,30.25,SSE,156,1.0,3.0,60,0.00,,---,0.00,VWS V13.01,2013-01-27 03:36:00,
2013-01-26 21:41:00,45.8,32.7,30.26,SSE,156,0.0,3.0,60,0.00,,---,0.00,VWS V13.01,2013-01-27 03:41:00,
2013-01-26 21:46:00,45.8,32.7,30.25,SSE,157,1.0,5.0,60,0.00,,---,0.00,VWS V13.01,2013-01-27 03:46:00,
2013-01-26 21:51:00,45.8,33.1,30.25,SSE,161,2.0,5.0,61,0.00,,---,0.00,VWS V13.01,2013-01-27 03:51:00,
2013-01-26 21:56:00,45.7,33.0,30.25,SSE,161,2.0,5.0,61,0.00,,---,0.00,VWS V13.01,2013-01-27 03:56:00,
2013-01-26 22:01:00,45.7,33.0,30.25,SSE,160,0.0,5.0,61,0.00,,---,0.00,VWS V13.01,2013-01-27 04:01:00,
2013-01-26 22:06:00,45.7,33.0,30.25,SSE,161,0.0,0.0,61,0.00,,---,0.00,VWS V13.01,2013-01-27 04:06:00,
2013-01-26 22:12:00,45.7,33.0,30.25,SSE,163,0.0,4.0,61,0.00,,---,0.00,VWS V13.01,2013-01-27 04:12:00,
2013-01-26 22:17:00,45.7,33.4,30.25,SSE,161,3.0,5.0,62,0.00,,---,0.00,VWS V13.01,2013-01-27 04:17:00,
2013-01-26 22:22:00,45.7,33.4,30.25,South,170,0.0,5.0,62,0.00,,---,0.00,VWS V13.01,2013-01-27 04:22:00,
2013-01-26 22:27:00,45.6,33.3,30.25,SSE,161,1.0,6.0,62,0.00,,---,0.00,VWS V13.01,2013-01-27 04:27:00,
2013-01-26 22:32:00,45.6,33.3,30.25,SSE,159,2.0,6.0,62,0.00,,---,0.00,VWS V13.01,2013-01-27 04:32:00,
2013-01-26 22:37:00,45.6,33.3,30.25,SSE,157,3.0,4.0,62,0.00,,---,0.00,VWS V13.01,2013-01-27 04:37:00,
2013-01-26 22:42:00,45.6,33.3,30.25,South,182,3.0,5.0,62,0.00,,---,0.00,VWS V13.01,2013-01-27 04:42:00,
2013-01-26 22:47:00,45.5,33.2,30.25,SSE,162,1.0,6.0,62,0.00,,---,0.00,VWS V13.01,2013-01-27 04:47:00,
2013-01-26 22:52:00,45.5,33.2,30.25,SSE,159,0.0,6.0,62,0.00,,---,0.00,VWS V13.01,2013-01-27 04:52:00,
2013-01-26 22:57:00,45.5,33.2,30.25,SSE,157,0.0,6.0,62,0.00,,---,0.00,VWS V13.01,2013-01-27 04:57:00,
2013-01-26 23:00:00,45.4,33.6,30.25,SSE,159,0.0,6.0,63,0.00,,---,0.00,VWS V13.01,2013-01-27 05:00:00,
2013-01-26 23:02:00,45.5,33.7,30.25,SSE,160,5.0,6.0,63,0.00,,---,0.00,VWS V13.01,2013-01-27 05:02:00,
2013-01-26 23:03:00,45.4,33.6,30.25,South,174,0.0,6.0,63,0.00,,---,0.00,VWS V13.01,2013-01-27 05:03:00,
2013-01-26 23:08:00,45.4,33.6,30.25,SSE,158,1.0,4.0,63,0.00,,---,0.00,VWS V13.01,2013-01-27 05:08:00,
2013-01-26 23:13:00,45.4,33.6,30.25,SSE,152,3.0,6.0,63,0.00,,---,0.00,VWS V13.01,2013-01-27 05:13:00,
2013-01-26 23:18:00,45.4,33.6,30.24,SSE,152,2.0,6.0,63,0.00,,---,0.00,VWS V13.01,2013-01-27 05:18:00,
2013-01-26 23:23:00,45.4,34.0,30.25,SSE,152,3.0,6.0,64,0.00,,---,0.00,VWS V13.01,2013-01-27 05:23:00,
2013-01-26 23:28:00,45.3,33.9,30.25,SSE,152,1.0,6.0,64,0.00,,---,0.00,VWS V13.01,2013-01-27 05:28:00,
2013-01-26 23:34:00,45.3,33.9,30.25,SSE,152,0.0,6.0,64,0.00,,---,0.00,VWS V13.01,2013-01-27 05:34:00,
2013-01-26 23:39:00,45.3,34.2,30.25,SSE,152,2.0,3.0,65,0.00,,---,0.00,VWS V13.01,2013-01-27 05:39:00,
2013-01-26 23:44:00,45.3,34.2,30.24,SSE,152,2.0,6.0,65,0.00,,---,0.00,VWS V13.01,2013-01-27 05:44:00,
2013-01-26 23:49:00,45.3,34.2,30.24,SSE,152,3.0,6.0,65,0.00,,---,0.00,VWS V13.01,2013-01-27 05:49:00,
2013-01-26 23:54:00,45.3,34.2,30.24,SSE,150,3.0,6.0,65,0.00,,---,0.00,VWS V13.01,2013-01-27 05:54:00,
2013-01-26 23:59:00,45.3,34.2,30.24,SSE,150,2.0,6.0,65,0.00,,---,0.00,VWS V13.01,2013-01-27 05:59:00,